GW5221 Weather Reports


Display with metric or nautical units.
time (UTC)temp
F
wind
direction
speed
MPH
gust
MPH
rain 1hr
in
rain 24hr
in
rain mn
in
humidity
%
barometer
mb
20260509031239 81 318 0.0 3.0 0.00 0.00 0.00 79 1018.7
20260509030737 81 34 2.0 4.0 0.00 0.00 0.00 79 1018.6
20260509030234 81 0 1.0 3.0 0.00 0.00 0.00 79 1018.6
20260509025731 81 358 1.0 6.0 0.00 0.00 0.00 79 1018.7
20260509025226 81 22 1.0 4.0 0.00 0.00 0.00 79 1018.7
20260509024722 81 26 1.0 6.0 0.00 0.00 0.00 79 1018.8
20260509024218 81 204 4.0 6.0 0.00 0.00 0.00 79 1018.5
20260509023716 81 356 0.0 2.0 0.00 0.00 0.00 79 1018.7
20260509023213 81 3 2.0 6.0 0.00 0.00 0.00 78 1018.6
20260509022708 81 330 1.0 4.0 0.00 0.00 0.00 78 1018.3
20260509022207 81 314 1.0 9.0 0.00 0.00 0.00 78 1018.4
20260509021703 81 50 1.0 3.0 0.00 0.00 0.00 78 1018.6
20260509021201 81 21 3.0 7.0 0.00 0.00 0.00 78 1018.1
20260509020659 81 21 2.0 8.0 0.00 0.00 0.00 78 1018.2
20260509020155 81 46 1.0 3.0 0.00 0.00 0.00 78 1018.2
20260509015654 81 305 1.0 4.0 0.00 0.00 0.00 78 1018.1
20260509015152 81 62 2.0 3.0 0.00 0.00 0.00 79 1018.1
20260509014648 81 38 4.0 7.0 0.00 0.00 0.00 78 1018.2
20260509014144 81 267 1.0 3.0 0.00 0.00 0.00 78 1018.2
20260509013641 81 308 1.0 4.0 0.00 0.00 0.00 78 1018.0
20260509013137 81 359 1.0 8.0 0.00 0.00 0.00 78 1018.0
20260509012634 81 334 2.0 7.0 0.00 0.00 0.00 77 1017.9
20260509012131 81 5 1.0 4.0 0.00 0.00 0.00 78 1017.7
20260509011629 81 67 3.0 4.0 0.00 0.00 0.00 78 1017.6
20260509011126 81 1 0.0 2.0 0.00 0.00 0.00 78 1017.6
20260509010623 81 352 0.0 2.0 0.00 0.00 0.00 78 1017.7
20260509010119 82 125 1.0 2.0 0.00 0.00 0.00 78 1017.7
20260509005618 82 0 1.0 2.0 0.00 0.00 0.00 77 1017.4
20260509005113 82 315 1.0 4.0 0.00 0.00 0.00 77 1017.4
20260509004609 82 354 2.0 4.0 0.00 0.00 0.00 77 1017.3
20260509004107 82 349 1.0 6.0 0.00 0.00 0.00 77 1017.2
20260509003605 82 14 2.0 4.0 0.00 0.00 0.00 77 1017.0
20260509003102 82 150 3.0 3.0 0.00 0.00 0.00 76 1017.2
20260509002559 82 54 2.0 4.0 0.00 0.00 0.00 76 1017.2
20260509002057 82 349 1.0 4.0 0.00 0.00 0.00 76 1016.9
20260509001554 82 353 3.0 6.0 0.00 0.00 0.00 75 1017.0
20260509001049 82 31 2.0 4.0 0.00 0.00 0.00 75 1016.8
20260509000548 82 8 4.0 6.0 0.00 0.00 0.00 75 1016.8
20260509000044 82 355 2.0 4.0 0.00 0.00 0.00 75 1016.8
20260508235542 82 345 1.0 7.0 0.00 0.00 0.00 75 1016.6
20260508235038 82 350 1.0 8.0 0.00 0.00 0.00 74 1016.5
20260508234536 82 31 1.0 6.0 0.00 0.00 0.00 74 1016.2
20260508234033 82 45 0.0 3.0 0.00 0.00 0.00 74 1016.4
20260508233532 82 88 4.0 8.0 0.00 0.00 0.00 74 1016.4
20260508233029 82 300 2.0 4.0 0.00 0.00 0.00 74 1016.3
20260508232526 82 325 0.0 3.0 0.00 0.00 0.00 73 1016.1
20260508232023 82 354 1.0 4.0 0.00 0.00 0.00 73 1016.3
20260508231520 82 349 2.0 7.0 0.00 0.00 0.00 73 1016.3
20260508231017 83 50 4.0 6.0 0.00 0.00 0.00 73 1016.2
20260508230513 83 80 2.0 6.0 0.00 0.00 0.00 73 1016.2
20260508230010 83 318 0.0 7.0 0.00 0.00 0.00 73 1016.2
20260508225508 83 24 1.0 6.0 0.00 0.00 0.00 73 1016.2
20260508225004 83 12 1.0 6.0 0.00 0.00 0.00 73 1016.2
20260508224502 83 46 2.0 7.0 0.00 0.00 0.00 72 1016.1
20260508223959 84 37 3.0 4.0 0.00 0.00 0.00 72 1016.3
20260508223457 84 77 5.0 10.0 0.00 0.00 0.00 71 1016.0
20260508222954 84 18 2.0 4.0 0.00 0.00 0.00 71 1016.0
20260508222451 84 355 1.0 2.0 0.00 0.00 0.00 71 1015.9
20260508221947 84 19 3.0 7.0 0.00 0.00 0.00 71 1015.9
20260508221444 84 352 2.0 3.0 0.00 0.00 0.00 71 1015.8
20260508220940 85 44 4.0 7.0 0.00 0.00 0.00 71 1015.8
20260508220436 85 42 2.0 6.0 0.00 0.00 0.00 70 1015.9
20260508215933 86 165 4.0 8.0 0.00 0.00 0.00 69 1015.8
20260508215430 86 331 2.0 6.0 0.00 0.00 0.00 68 1015.7
20260508214926 86 170 1.0 3.0 0.00 0.00 0.00 68 1015.6
20260508214424 86 255 2.0 4.0 0.00 0.00 0.00 70 1015.6
20260508213920 86 338 2.0 6.0 0.00 0.00 0.00 70 1015.7
20260508213418 86 343 2.0 7.0 0.00 0.00 0.00 70 1015.5
20260508212913 86 343 2.0 6.0 0.00 0.00 0.00 70 1015.3
20260508212410 87 137 2.0 4.0 0.00 0.00 0.00 69 1015.4
20260508211906 87 348 3.0 6.0 0.00 0.00 0.00 67 1015.4
20260508211401 87 49 1.0 3.0 0.00 0.00 0.00 67 1015.5
20260508210859 87 17 1.0 3.0 0.00 0.00 0.00 66 1015.6
20260508210355 87 348 2.0 6.0 0.00 0.00 0.00 67 1015.6
20260508205852 87 34 3.0 7.0 0.00 0.00 0.00 66 1015.5
20260508205349 87 44 3.0 11.0 0.00 0.00 0.00 66 1015.5
20260508204845 88 347 3.0 8.0 0.00 0.00 0.00 64 1015.4
20260508204342 88 137 2.0 4.0 0.00 0.00 0.00 64 1015.5
20260508203838 88 5 2.0 4.0 0.00 0.00 0.00 64 1015.4
20260508203334 88 325 4.0 8.0 0.00 0.00 0.00 63 1015.3
20260508202830 89 319 2.0 6.0 0.00 0.00 0.00 61 1015.5
20260508202328 89 45 1.0 4.0 0.00 0.00 0.00 59 1015.6
20260508201825 89 77 2.0 7.0 0.00 0.00 0.00 59 1015.6
20260508201323 89 7 2.0 8.0 0.00 0.00 0.00 61 1015.6
20260508200818 89 335 2.0 4.0 0.00 0.00 0.00 61 1015.7
20260508200315 89 323 2.0 7.0 0.00 0.00 0.00 62 1015.8
20260508195811 89 232 4.0 8.0 0.00 0.00 0.00 61 1015.7
20260508195307 90 326 3.0 7.0 0.00 0.00 0.00 60 1015.8
20260508194804 89 323 2.0 7.0 0.00 0.00 0.00 59 1016.0
20260508194301 90 38 2.0 10.0 0.00 0.00 0.00 59 1015.8
20260508193758 90 38 2.0 4.0 0.00 0.00 0.00 57 1016.0
20260508193255 89 185 2.0 10.0 0.00 0.00 0.00 58 1016.1
20260508192751 90 92 5.0 8.0 0.00 0.00 0.00 58 1015.9
20260508192248 90 63 4.0 7.0 0.00 0.00 0.00 59 1016.0
20260508191745 91 142 5.0 8.0 0.00 0.00 0.00 57 1016.0
20260508191242 90 336 2.0 7.0 0.00 0.00 0.00 58 1016.0
20260508190739 91 4 2.0 9.0 0.00 0.00 0.00 56 1016.3
20260508190235 91 16 2.0 6.0 0.00 0.00 0.00 58 1016.3
20260508185732 91 102 3.0 3.0 0.00 0.00 0.00 59 1016.1
20260508185230 91 18 6.0 10.0 0.00 0.00 0.00 59 1016.2
20260508184727 90 344 1.0 3.0 0.00 0.00 0.00 61 1016.4
20260508184224 91 110 4.0 13.0 0.00 0.00 0.00 58 1016.4
20260508183721 91 93 2.0 3.0 0.00 0.00 0.00 59 1016.5
20260508183217 91 97 2.0 9.0 0.00 0.00 0.00 59 1016.5
20260508182713 90 327 4.0 6.0 0.00 0.00 0.00 60 1016.6
20260508182210 91 62 5.0 9.0 0.00 0.00 0.00 59 1016.7
20260508181706 91 164 2.0 6.0 0.00 0.00 0.00 60 1016.6
20260508181203 91 349 1.0 9.0 0.00 0.00 0.00 59 1016.9
20260508180659 91 185 4.0 6.0 0.00 0.00 0.00 60 1016.9
20260508180156 91 8 2.0 7.0 0.00 0.00 0.00 59 1017.0
20260508175653 91 278 4.0 6.0 0.00 0.00 0.00 57 1017.1
20260508175149 91 6 2.0 6.0 0.00 0.00 0.00 58 1017.3
20260508174647 91 34 4.0 7.0 0.00 0.00 0.00 58 1017.2
20260508174144 91 3 2.0 8.0 0.00 0.00 0.00 58 1017.2
20260508173641 91 281 5.0 7.0 0.00 0.00 0.00 57 1017.1
20260508173137 91 276 2.0 6.0 0.00 0.00 0.00 56 1017.3
20260508172634 91 35 2.0 4.0 0.00 0.00 0.00 56 1017.3
20260508172131 91 83 3.0 4.0 0.00 0.00 0.00 56 1017.3
20260508171627 91 326 2.0 9.0 0.00 0.00 0.00 56 1017.4
20260508171124 91 31 4.0 9.0 0.00 0.00 0.00 55 1017.6
20260508170621 90 296 1.0 6.0 0.00 0.00 0.00 56 1017.7
20260508170118 91 20 1.0 8.0 0.00 0.00 0.00 58 1017.7
20260508165610 91 287 3.0 7.0 0.00 0.00 0.00 57 1017.8
20260508165107 91 16 2.0 7.0 0.00 0.00 0.00 58 1017.9
20260508164603 91 293 4.0 6.0 0.00 0.00 0.00 58 1018.0
20260508164100 91 69 3.0 9.0 0.00 0.00 0.00 57 1018.0
20260508163557 90 200 3.0 7.0 0.00 0.00 0.00 60 1018.1
20260508163054 89 63 3.0 8.0 0.00 0.00 0.00 60 1018.2
20260508162551 89 349 3.0 7.0 0.00 0.00 0.00 62 1018.3
20260508162048 89 316 4.0 6.0 0.00 0.00 0.00 61 1018.3
20260508161545 90 298 2.0 8.0 0.00 0.00 0.00 61 1018.5
20260508161042 90 199 3.0 9.0 0.00 0.00 0.00 61 1018.5
20260508160541 89 342 1.0 4.0 0.00 0.00 0.00 61 1018.6
20260508160037 89 336 2.0 9.0 0.00 0.00 0.00 62 1018.6
20260508155535 88 124 2.0 4.0 0.00 0.00 0.00 63 1018.8
20260508155031 87 86 4.0 7.0 0.00 0.00 0.00 65 1018.8
20260508154529 88 153 2.0 3.0 0.00 0.00 0.00 65 1018.8
20260508154025 88 214 4.0 7.0 0.00 0.00 0.00 65 1018.8
20260508153522 88 36 2.0 4.0 0.00 0.00 0.00 66 1019.0
20260508153019 87 180 3.0 6.0 0.00 0.00 0.00 65 1018.9
20260508152515 86 169 3.0 9.0 0.00 0.00 0.00 67 1019.0
20260508152010 86 18 2.0 7.0 0.00 0.00 0.00 69 1019.2
20260508151508 86 58 4.0 7.0 0.00 0.00 0.00 70 1019.1
20260508151004 86 120 4.0 6.0 0.00 0.00 0.00 71 1019.2
20260508150501 85 316 4.0 8.0 0.00 0.00 0.00 71 1019.1
20260508145956 85 174 3.0 4.0 0.00 0.00 0.00 72 1019.2
20260508145453 85 109 4.0 7.0 0.00 0.00 0.00 73 1019.2
20260508144950 85 168 3.0 6.0 0.00 0.00 0.00 73 1019.3
20260508144448 85 74 2.0 7.0 0.00 0.00 0.00 73 1019.5
20260508143945 84 344 2.0 7.0 0.00 0.00 0.00 76 1019.4
20260508143442 84 199 2.0 6.0 0.00 0.00 0.00 77 1019.5
20260508142938 84 185 3.0 6.0 0.00 0.00 0.00 77 1019.5
20260508142436 83 226 2.0 4.0 0.00 0.00 0.00 78 1019.3
20260508141932 83 189 4.0 6.0 0.00 0.00 0.00 79 1019.3
20260508141429 83 34 1.0 8.0 0.00 0.00 0.00 79 1019.6
20260508140926 83 77 4.0 7.0 0.00 0.00 0.00 78 1019.2
20260508140423 83 340 2.0 3.0 0.00 0.00 0.00 78 1019.5
20260508135919 84 62 2.0 6.0 0.00 0.00 0.00 75 1019.3
20260508135416 85 113 5.0 7.0 0.00 0.00 0.00 70 1019.3
20260508134912 86 307 2.0 4.0 0.00 0.00 0.00 69 1019.3
20260508134409 86 222 2.0 4.0 0.00 0.00 0.00 70 1019.4
20260508133906 86 254 1.0 3.0 0.00 0.00 0.00 70 1019.5
20260508133404 86 321 2.0 8.0 0.00 0.00 0.00 71 1019.4
20260508132900 86 117 4.0 7.0 0.00 0.00 0.00 69 1019.6
20260508132358 86 30 1.0 6.0 0.00 0.00 0.00 69 1019.3
20260508131855 87 82 4.0 6.0 0.00 0.00 0.00 68 1019.5
20260508131350 87 339 3.0 10.0 0.00 0.00 0.00 67 1019.3
20260508130847 87 114 3.0 9.0 0.00 0.00 0.00 68 1019.6
20260508130344 86 107 4.0 4.0 0.00 0.00 0.00 69 1019.4
20260508125840 86 337 2.0 9.0 0.00 0.00 0.00 69 1019.5
20260508125336 85 337 1.0 3.0 0.00 0.00 0.00 70 1019.4
20260508124834 85 344 0.0 3.0 0.00 0.00 0.00 70 1019.4
20260508124331 86 333 4.0 7.0 0.00 0.00 0.00 69 1019.6
20260508123829 86 20 2.0 6.0 0.00 0.00 0.00 69 1019.3
20260508123327 86 62 2.0 7.0 0.00 0.00 0.00 70 1019.2
20260508122823 86 310 2.0 8.0 0.00 0.00 0.00 70 1019.6
20260508122320 85 347 2.0 8.0 0.00 0.00 0.00 71 1019.3
20260508121817 85 48 3.0 6.0 0.00 0.00 0.00 72 1019.1
20260508121316 85 183 2.0 6.0 0.00 0.00 0.00 71 1019.3
20260508120813 84 194 2.0 9.0 0.00 0.00 0.00 72 1018.9
20260508120311 84 294 2.0 4.0 0.00 0.00 0.00 73 1019.2
20260508115808 83 307 2.0 6.0 0.00 0.00 0.00 75 1019.1
20260508115306 83 359 2.0 2.0 0.00 0.00 0.00 76 1019.1
20260508114802 83 223 1.0 4.0 0.00 0.00 0.00 76 1019.1
20260508114259 82 304 1.0 3.0 0.00 0.00 0.00 76 1018.9
20260508113755 82 11 2.0 7.0 0.00 0.00 0.00 76 1019.1
20260508113254 82 53 2.0 3.0 0.00 0.00 0.00 76 1018.9
20260508112749 83 320 1.0 7.0 0.00 0.00 0.00 76 1018.6
20260508112247 82 21 2.0 6.0 0.00 0.00 0.00 76 1018.9
20260508111743 82 332 3.0 7.0 0.00 0.00 0.00 76 1018.8
20260508111241 82 28 2.0 6.0 0.00 0.00 0.00 77 1018.7
20260508110738 82 264 1.0 3.0 0.00 0.00 0.00 77 1018.7
20260508110236 81 344 1.0 3.0 0.00 0.00 0.00 78 1018.7
20260508105735 81 116 2.0 4.0 0.00 0.00 0.00 78 1018.4
20260508105232 81 322 1.0 3.0 0.00 0.00 0.00 79 1018.7
20260508104729 81 288 0.0 1.0 0.00 0.00 0.00 79 1018.6
20260508104226 81 345 1.0 3.0 0.00 0.00 0.00 79 1018.4
20260508103724 81 323 2.0 6.0 0.00 0.00 0.00 79 1018.5
20260508103220 81 0 2.0 4.0 0.00 0.00 0.00 79 1018.5
20260508102717 81 105 3.0 3.0 0.00 0.00 0.00 80 1018.3
20260508102216 80 38 2.0 6.0 0.00 0.00 0.00 80 1018.3
20260508101712 80 333 1.0 7.0 0.00 0.00 0.00 80 1018.3
20260508101210 80 11 3.0 6.0 0.00 0.00 0.00 80 1018.4
20260508100707 80 338 1.0 6.0 0.00 0.00 0.00 81 1018.3
20260508100205 80 36 1.0 4.0 0.00 0.00 0.00 81 1018.2
20260508095656 80 336 1.0 4.0 0.00 0.00 0.00 81 1018.1
20260508095154 80 355 0.0 0.0 0.00 0.00 0.00 81 1018.1
20260508094650 80 354 1.0 2.0 0.00 0.00 0.00 81 1018.3
20260508094147 81 334 1.0 6.0 0.00 0.00 0.00 81 1018.3
20260508093644 81 349 2.0 4.0 0.00 0.00 0.00 81 1018.2
20260508093142 81 323 2.0 4.0 0.00 0.00 0.00 80 1018.2
20260508092639 81 351 2.0 2.0 0.00 0.00 0.00 80 1018.0
20260508092138 81 5 1.0 2.0 0.00 0.00 0.00 80 1018.0
20260508091635 81 9 1.0 3.0 0.00 0.00 0.00 80 1018.1
20260508091132 81 247 2.0 6.0 0.00 0.00 0.00 80 1018.1
20260508090630 81 99 1.0 6.0 0.00 0.00 0.00 80 1018.1
20260508090127 81 18 1.0 3.0 0.00 0.00 0.00 81 1018.1
20260508085622 81 293 0.0 7.0 0.00 0.00 0.00 81 1018.1
20260508085120 81 350 0.0 1.0 0.00 0.00 0.00 81 1017.8
20260508084616 81 90 2.0 4.0 0.00 0.00 0.00 82 1017.8
20260508084114 81 148 0.0 1.0 0.00 0.00 0.00 82 1017.8
20260508083610 81 329 0.0 3.0 0.00 0.00 0.00 81 1017.9
20260508083107 81 251 0.0 4.0 0.00 0.00 0.00 81 1017.8
20260508082603 81 340 0.0 1.0 0.00 0.00 0.00 81 1017.7
20260508082101 81 304 1.0 2.0 0.00 0.00 0.00 80 1017.9
20260508081558 80 1 2.0 4.0 0.00 0.00 0.00 80 1017.8
20260508081054 80 336 3.0 7.0 0.00 0.00 0.00 81 1017.8
20260508080552 81 348 2.0 4.0 0.00 0.00 0.00 81 1018.1
20260508080049 81 38 1.0 2.0 0.00 0.00 0.00 81 1018.0
20260508075545 81 23 2.0 4.0 0.00 0.00 0.00 81 1017.9
20260508075043 81 326 0.0 4.0 0.00 0.00 0.00 81 1018.0
20260508074540 81 357 2.0 4.0 0.00 0.00 0.00 81 1018.0
20260508074037 81 337 1.0 3.0 0.00 0.00 0.00 80 1018.0
20260508073534 81 290 0.0 4.0 0.00 0.00 0.00 80 1018.1
20260508073032 80 194 2.0 4.0 0.00 0.00 0.00 80 1018.1
20260508072527 81 14 1.0 2.0 0.00 0.00 0.00 81 1018.0
20260508072025 81 332 2.0 3.0 0.00 0.00 0.00 81 1017.9
20260508071523 81 357 3.0 3.0 0.00 0.00 0.00 81 1018.1
20260508071020 81 9 1.0 3.0 0.00 0.00 0.00 80 1018.1
20260508070518 81 296 2.0 6.0 0.00 0.00 0.00 80 1018.0
20260508070016 81 335 0.0 6.0 0.00 0.00 0.00 80 1018.2
20260508065513 81 32 3.0 4.0 0.00 0.00 0.00 81 1018.2
20260508065011 81 72 2.0 3.0 0.00 0.00 0.00 80 1018.1
20260508064508 81 337 2.0 3.0 0.00 0.00 0.00 81 1018.1
20260508064006 81 346 1.0 2.0 0.00 0.00 0.00 80 1018.2
20260508063503 81 343 1.0 1.0 0.00 0.00 0.00 80 1018.3
20260508063001 81 324 1.0 2.0 0.00 0.00 0.00 80 1018.1
20260508062459 81 347 0.0 3.0 0.00 0.00 0.00 80 1018.4
20260508061955 81 92 4.0 4.0 0.00 0.00 0.00 80 1018.4
20260508061453 81 261 3.0 4.0 0.00 0.00 0.00 80 1018.4
20260508060948 81 323 1.0 2.0 0.00 0.00 0.00 81 1018.3
20260508060446 81 26 3.0 6.0 0.00 0.00 0.00 81 1018.4
20260508055942 81 17 2.0 3.0 0.00 0.00 0.00 81 1018.4
20260508055439 81 353 1.0 4.0 0.00 0.00 0.00 81 1018.3
20260508054936 81 219 2.0 4.0 0.00 0.00 0.00 81 1018.3
20260508054433 81 18 1.0 2.0 0.00 0.00 0.00 81 1018.3
20260508053929 81 2 2.0 7.0 0.00 0.00 0.00 81 1018.3
20260508053427 81 344 1.0 2.0 0.00 0.00 0.00 81 1018.5
20260508052925 81 350 1.0 2.0 0.00 0.00 0.00 80 1018.6
20260508052422 81 326 0.0 7.0 0.00 0.00 0.00 80 1018.5
20260508051918 81 8 1.0 4.0 0.00 0.00 0.00 80 1018.5
20260508051414 81 58 2.0 6.0 0.00 0.00 0.00 80 1018.5
20260508050910 81 350 1.0 4.0 0.00 0.00 0.00 80 1018.4
20260508050407 81 76 1.0 6.0 0.00 0.00 0.00 80 1018.9
20260508045903 81 44 2.0 4.0 0.00 0.00 0.00 80 1018.7
20260508045401 81 56 1.0 3.0 0.00 0.00 0.00 80 1018.8
20260508044858 81 355 1.0 6.0 0.00 0.00 0.00 80 1019.0
20260508044355 81 262 1.0 8.0 0.00 0.00 0.00 80 1018.9
20260508043850 81 21 4.0 7.0 0.00 0.00 0.00 81 1018.9
20260508043348 81 72 2.0 7.0 0.00 0.00 0.00 81 1019.0
20260508042844 81 309 1.0 2.0 0.00 0.00 0.00 81 1018.8
20260508042342 81 331 2.0 3.0 0.00 0.00 0.00 81 1019.0
20260508041839 81 2 1.0 4.0 0.00 0.00 0.00 81 1019.0
20260508041335 81 339 1.0 3.0 0.00 0.00 0.00 81 1018.9
20260508040832 81 279 1.0 4.0 0.00 0.00 0.00 81 1019.0
20260508040329 81 32 1.0 2.0 0.00 0.00 0.00 81 1019.2
20260508035826 81 4 1.0 6.0 0.00 0.00 0.00 81 1019.3
20260508035324 81 0 1.0 3.0 0.00 0.00 0.00 80 1019.1
20260508034820 81 355 2.0 4.0 0.00 0.00 0.00 80 1019.0
20260508034318 81 234 2.0 7.0 0.00 0.00 0.00 80 1019.0
20260508033814 81 68 4.0 6.0 0.00 0.00 0.00 80 1019.0
20260508033313 81 302 2.0 4.0 0.00 0.00 0.00 81 1019.1
20260508032810 81 21 2.0 4.0 0.00 0.00 0.00 81 1019.1
20260508032307 81 19 3.0 8.0 0.00 0.00 0.00 81 1019.1
20260508031803 81 346 1.0 4.0 0.00 0.00 0.00 81 1019.0